Content
SEND FEEDBACK

Daily
Averages
Monthly
Summary
United States of America

NEW CARLISLE, OHIO


Home > North America > United States > Ohio
Elevation: 910 feet     Latitude: 39 56N     Longitude: 084 02W

WEATHER
 
SELECT A DAY
Number of Records: 212,015;   Date Range: 1/1/95 - 9/29/14
 
SHARE

PRINT THIS DATA

[ ← Previous Day ]
WEATHER ALMANAC - FEBRUARY 13, 2013
[ Next Day → ]
[ °C ]   °F
Weather ElementAverageHighLow
Temperature30.2 °F36 °F (4:56 pm)26.6 °F (2:09 am)
Dewpoint25.3 °F28 °F (9:56 pm)24.1 °F (10:56 am)
Humidity82.2 %93 % (2:09 am)67 % (4:56 pm)
Barometer29.85 in29.92 in (1:56 am)29.78 in (1:18 pm)
Wind Speed6.7 mph11.5 mph (11:56 pm)
Weather ElementAverage
Visibility6.3 mi
Wind DirectionS (176.1 °)

Weather ElementTotal
Precipitation---
Heating Degree Days33.7 (Base 65)
Averaged from 31 records on February 13, 2013
WEATHER CONDITIONS BREAKOUT
WIND DIRECTION BREAKOUT
WEATHER BY HOUR - FEBRUARY 13, 2013
[ °C ]   °F
Local TimeTemperatureDewpointHumidityBarometerVisibilityWind DirectionWind SpeedGust SpeedPrecipitationEventsConditions
1:56 AM28.0 °F25.0 °F88 %29.92 in5.0 miNorth (10°)5.8 mphMostly Cloudy
2:09 AM26.6 °F24.8 °F93 %29.89 in5.0 miNorth (360°)8.1 mphPartly Cloudy
2:39 AM28.4 °F24.8 °F86 %29.89 in5.0 miNNE (20°)5.8 mphMostly Cloudy
2:56 AM28.0 °F26.1 °F92 %29.92 in5.0 miNorth (360°)3.5 mphOvercast
3:56 AM28.9 °F26.1 °F89 %29.90 in4.0 miNorth (360°)8.1 mphOvercast
4:56 AM28.9 °F26.1 °F89 %29.88 in5.0 miNorth (10°)8.1 mphOvercast
5:56 AM28.9 °F25.0 °F85 %29.86 in6.0 miNNE (30°)6.9 mphOvercast
6:37 AM28.4 °F24.8 °F86 %29.82 in6.0 miNNE (20°)9.2 mphOvercast
6:56 AM28.9 °F25.0 °F85 %29.83 in6.0 miNNE (20°)10.4 mphOvercast
7:56 AM28.0 °F25.0 °F88 %29.83 in6.0 miNorth (10°)6.9 mphOvercast
8:56 AM28.9 °F25.0 °F85 %29.85 in6.0 miNNE (20°)8.1 mphOvercast
9:56 AM28.9 °F25.0 °F85 %29.86 in6.0 miNNE (20°)4.6 mphOvercast
10:56 AM28.9 °F24.1 °F82 %29.86 in4.0 miNNW (340°)3.5 mphHaze
11:12 AM30.2 °F24.8 °F80 %29.83 in5.0 miCalmHaze
11:42 AM30.2 °F24.8 °F80 %29.82 in5.0 miCalmHaze
11:56 AM30.0 °F24.1 °F79 %29.85 in5.0 miCalmHaze
12:56 PM30.0 °F25.0 °F82 %29.82 in5.0 miNNW (330°)4.6 mphHaze
1:18 PM30.2 °F24.8 °F80 %29.78 in5.0 miNW (320°)6.9 mphHaze
1:29 PM30.2 °F24.8 °F80 %29.78 in6.0 miNW (310°)8.1 mphHaze
1:42 PM30.2 °F24.8 °F80 %29.78 in6.0 miNW (320°)9.2 mphHaze
1:56 PM30.9 °F25.0 °F79 %29.81 in6.0 miNW (310°)10.4 mphHaze
2:56 PM32.0 °F25.0 °F75 %29.80 in7.0 miNW (320°)9.2 mphOvercast
3:56 PM34.0 °F25.0 °F70 %29.81 in9.0 miWest (280°)6.9 mphMostly Cloudy
4:56 PM36.0 °F26.1 °F67 %29.81 in10.0 miWest (260°)4.6 mphScattered Clouds
5:56 PM34.0 °F25.0 °F70 %29.82 in10.0 miSSW (210°)4.6 mphPartly Cloudy
6:56 PM33.1 °F25.0 °F72 %29.85 in10.0 miSSW (210°)5.8 mphClear
7:56 PM32.0 °F25.0 °F75 %29.87 in10.0 miSSW (200°)8.1 mphClear
8:56 PM30.9 °F26.1 °F82 %29.88 in8.0 miSSW (200°)8.1 mphClear
9:56 PM30.9 °F28.0 °F89 %29.89 in6.0 miSSW (200°)9.2 mphClear
10:56 PM30.9 °F28.0 °F89 %29.88 in6.0 miSSW (200°)10.4 mphScattered Clouds
11:56 PM30.9 °F27.0 °F85 %29.89 in7.0 miSSW (210°)11.5 mphPartly Cloudy
Hourly data recorded from KDAY, located miles away from New Carlisle, Ohio







STORIES FROM OUR PARTNERS